| time (UTC) | temp F | wind direction | speed knots | gust knots | rain 1hr in | rain 24hr in | rain mn in | humidity % | barometer mb |
| 20260906002037 | 65 | 0.0 | 0.0 | 0.00 | 0.08 | 0.00 | 71 | 1016.7 | |
| 20260906001041 | 66 | 0.0 | 0.0 | 0.00 | 0.09 | 0.00 | 72 | 1016.6 | |
| 20260906000017 | 65 | 0.0 | 0.0 | 0.00 | 0.11 | 0.00 | 72 | 1016.6 | |
| 20260905235016 | 65 | 0.0 | 0.0 | 0.00 | 0.13 | 0.00 | 74 | 1016.7 | |
| 20260905234016 | 65 | 0.0 | 0.0 | 0.00 | 0.14 | 0.00 | 72 | 1016.7 | |
| 20260905233016 | 65 | 0.0 | 0.0 | 0.00 | 0.14 | 0.00 | 74 | 1016.8 | |
| 20260905232016 | 65 | 0.0 | 0.0 | 0.00 | 0.14 | 0.00 | 75 | 1016.8 | |
| 20260905231016 | 65 | 0.0 | 0.0 | 0.00 | 0.14 | 0.00 | 76 | 1016.9 | |
| 20260905230016 | 65 | 0.0 | 0.9 | 0.00 | 0.14 | 0.00 | 77 | 1017.0 | |
| 20260905225016 | 65 | 0.0 | 0.9 | 0.00 | 0.14 | 0.00 | 78 | 1017.1 | |
| 20260905224042 | 66 | 0.0 | 1.7 | 0.00 | 0.14 | 0.00 | 78 | 1017.3 | |
| 20260905223017 | 67 | 0.0 | 0.0 | 0.00 | 0.14 | 0.00 | 73 | 1017.2 | |
| 20260905222016 | 68 | 0.0 | 0.0 | 0.00 | 0.14 | 0.00 | 70 | 1017.3 | |
| 20260905221017 | 68 | 0.0 | 0.9 | 0.00 | 0.14 | 0.00 | 70 | 1017.4 | |
| 20260905220016 | 68 | 158 | 0.9 | 2.6 | 0.00 | 0.14 | 0.00 | 64 | 1017.5 |
| 20260905215016 | 68 | 0.0 | 2.6 | 0.00 | 0.14 | 0.00 | 64 | 1017.6 | |
| 20260905214016 | 68 | 0.0 | 2.6 | 0.00 | 0.14 | 0.00 | 68 | 1017.6 | |
| 20260905213016 | 67 | 0.0 | 2.6 | 0.00 | 0.14 | 0.00 | 65 | 1017.6 | |
| 20260905212017 | 66 | 158 | 0.9 | 2.6 | 0.00 | 0.14 | 0.00 | 67 | 1017.6 |
| 20260905211016 | 66 | 0.0 | 1.7 | 0.00 | 0.14 | 0.00 | 69 | 1017.7 | |
| 20260905210016 | 65 | 0.0 | 0.9 | 0.00 | 0.14 | 0.00 | 72 | 1017.7 | |
| 20260905205017 | 64 | 0.0 | 0.9 | 0.00 | 0.14 | 0.00 | 79 | 1017.7 | |
| 20260905204036 | 64 | 0.0 | 0.9 | 0.00 | 0.14 | 0.00 | 80 | 1017.8 | |
| 20260905203016 | 63 | 0.0 | 0.9 | 0.00 | 0.14 | 0.00 | 82 | 1017.9 | |
| 20260905202016 | 62 | 0.0 | 0.9 | 0.00 | 0.14 | 0.00 | 83 | 1017.9 | |
| 20260905201016 | 61 | 0.0 | 0.0 | 0.00 | 0.14 | 0.00 | 83 | 1018.0 | |
| 20260905200016 | 61 | 0.0 | 0.0 | 0.00 | 0.14 | 0.00 | 85 | 1018.0 | |
| 20260905195016 | 60 | 0.0 | 0.0 | 0.00 | 0.14 | 0.00 | 87 | 1018.1 | |
| 20260905194016 | 60 | 0.0 | 0.0 | 0.00 | 0.14 | 0.00 | 88 | 1018.0 | |
| 20260905193016 | 59 | 0.0 | 0.0 | 0.00 | 0.14 | 0.00 | 90 | 1018.1 | |
| 20260905192015 | 59 | 0.0 | 0.0 | 0.00 | 0.14 | 0.00 | 91 | 1018.1 | |
| 20260905191015 | 59 | 0.0 | 0.0 | 0.00 | 0.14 | 0.00 | 91 | 1018.2 | |
| 20260905190036 | 58 | 0.0 | 0.0 | 0.00 | 0.14 | 0.00 | 91 | 1018.2 | |
| 20260905185016 | 58 | 0.0 | 0.0 | 0.00 | 0.14 | 0.00 | 92 | 1018.3 | |
| 20260905184016 | 57 | 0.0 | 0.0 | 0.00 | 0.14 | 0.00 | 92 | 1018.4 | |
| 20260905183016 | 57 | 0.0 | 0.0 | 0.00 | 0.14 | 0.00 | 93 | 1018.5 | |
| 20260905182016 | 57 | 0.0 | 0.0 | 0.00 | 0.14 | 0.00 | 94 | 1018.6 | |
| 20260905181015 | 57 | 0.0 | 0.0 | 0.00 | 0.14 | 0.00 | 95 | 1018.7 | |
| 20260905180016 | 56 | 0.0 | 0.0 | 0.00 | 0.14 | 0.00 | 94 | 1018.6 | |
| 20260905175017 | 56 | 0.0 | 0.0 | 0.00 | 0.14 | 0.00 | 96 | 1018.7 | |
| 20260905174015 | 55 | 0.0 | 0.0 | 0.00 | 0.14 | 0.00 | 96 | 1018.6 | |
| 20260905173015 | 55 | 0.0 | 0.0 | 0.00 | 0.14 | 0.00 | 98 | 1018.6 | |
| 20260905172016 | 55 | 0.0 | 0.0 | 0.00 | 0.14 | 0.00 | 98 | 1018.5 | |
| 20260905171016 | 55 | 0.0 | 0.0 | 0.00 | 0.14 | 0.00 | 98 | 1018.5 | |
| 20260905170016 | 55 | 0.0 | 0.0 | 0.00 | 0.14 | 0.00 | 98 | 1018.6 | |
| 20260905165019 | 54 | 0.0 | 0.0 | 0.00 | 0.14 | 0.00 | 98 | 1018.5 | |
| 20260905164017 | 54 | 0.0 | 0.0 | 0.00 | 0.14 | 0.00 | 98 | 1018.5 | |
| 20260905163017 | 53 | 0.0 | 0.0 | 0.00 | 0.14 | 0.00 | 98 | 1018.5 | |
| 20260905162017 | 52 | 0.0 | 0.0 | 0.00 | 0.14 | 0.00 | 98 | 1018.5 | |
| 20260905161015 | 52 | 0.0 | 0.0 | 0.00 | 0.14 | 0.00 | 98 | 1018.5 | |
| 20260905160018 | 51 | 0.0 | 0.0 | 0.00 | 0.14 | 0.00 | 98 | 1018.4 | |
| 20260905155015 | 51 | 0.0 | 0.0 | 0.00 | 0.14 | 0.00 | 98 | 1018.4 | |
| 20260905154017 | 51 | 0.0 | 0.0 | 0.00 | 0.14 | 0.00 | 98 | 1018.5 | |
| 20260905153125 | 50 | 0.0 | 0.0 | 0.00 | 0.14 | 0.00 | 98 | 1018.4 | |
| 20260905152018 | 50 | 0.0 | 0.0 | 0.00 | 0.14 | 0.00 | 98 | 1018.4 | |
| 20260905151059 | 50 | 0.0 | 0.0 | 0.00 | 0.14 | 0.00 | 98 | 1018.2 | |
| 20260905150044 | 50 | 0.0 | 0.0 | 0.00 | 0.14 | 0.00 | 98 | 1018.1 | |
| 20260905145017 | 50 | 0.0 | 0.0 | 0.00 | 0.14 | 0.00 | 98 | 1018.0 | |
| 20260905144017 | 50 | 0.0 | 0.0 | 0.00 | 0.14 | 0.00 | 98 | 1017.9 | |
| 20260905143017 | 49 | 0.0 | 0.0 | 0.00 | 0.14 | 0.00 | 98 | 1017.8 | |
| 20260905142017 | 49 | 0.0 | 0.0 | 0.00 | 0.14 | 0.00 | 98 | 1017.8 | |
| 20260905141018 | 49 | 0.0 | 0.0 | 0.00 | 0.14 | 0.00 | 98 | 1017.8 | |
| 20260905140018 | 49 | 0.0 | 0.0 | 0.00 | 0.14 | 0.00 | 97 | 1017.7 | |
| 20260905135017 | 49 | 0.0 | 0.0 | 0.00 | 0.14 | 0.00 | 97 | 1017.6 | |
| 20260905134017 | 49 | 0.0 | 0.0 | 0.00 | 0.14 | 0.00 | 97 | 1017.6 | |
| 20260905133037 | 49 | 0.0 | 0.0 | 0.00 | 0.14 | 0.00 | 97 | 1017.5 | |
| 20260905132017 | 49 | 0.0 | 0.0 | 0.00 | 0.14 | 0.00 | 97 | 1017.5 | |
| 20260905131017 | 49 | 0.0 | 0.0 | 0.00 | 0.14 | 0.00 | 97 | 1017.6 | |
| 20260905130017 | 50 | 0.0 | 0.0 | 0.00 | 0.14 | 0.00 | 97 | 1017.5 | |
| 20260905125018 | 50 | 0.0 | 0.0 | 0.00 | 0.14 | 0.00 | 97 | 1017.4 | |
| 20260905124017 | 50 | 0.0 | 0.0 | 0.00 | 0.14 | 0.00 | 97 | 1017.4 | |
| 20260905123041 | 50 | 0.0 | 0.0 | 0.00 | 0.14 | 0.00 | 97 | 1017.4 | |
| 20260905122037 | 50 | 0.0 | 0.0 | 0.00 | 0.14 | 0.00 | 97 | 1017.3 | |
| 20260905121017 | 50 | 0.0 | 0.0 | 0.00 | 0.14 | 0.00 | 97 | 1017.4 | |
| 20260905120058 | 50 | 0.0 | 0.0 | 0.00 | 0.14 | 0.00 | 97 | 1017.4 | |
| 20260905115017 | 50 | 0.0 | 0.0 | 0.00 | 0.14 | 0.00 | 97 | 1017.5 | |
| 20260905114037 | 50 | 0.0 | 0.0 | 0.00 | 0.14 | 0.00 | 97 | 1017.4 | |
| 20260905113017 | 50 | 0.0 | 0.0 | 0.00 | 0.14 | 0.00 | 97 | 1017.4 | |
| 20260905112017 | 50 | 0.0 | 0.0 | 0.00 | 0.14 | 0.00 | 97 | 1017.4 | |
| 20260905111017 | 50 | 0.0 | 0.0 | 0.00 | 0.14 | 0.00 | 97 | 1017.4 | |
| 20260905110017 | 50 | 0.0 | 0.0 | 0.00 | 0.14 | 0.00 | 97 | 1017.4 | |
| 20260905105039 | 50 | 0.0 | 0.0 | 0.00 | 0.14 | 0.00 | 97 | 1017.4 | |
| 20260905104018 | 50 | 0.0 | 0.0 | 0.00 | 0.14 | 0.00 | 97 | 1017.4 | |
| 20260905103037 | 50 | 0.0 | 0.0 | 0.00 | 0.14 | 0.00 | 97 | 1017.3 | |
| 20260905102017 | 50 | 0.0 | 0.0 | 0.00 | 0.14 | 0.00 | 97 | 1017.3 | |
| 20260905101017 | 50 | 0.0 | 0.0 | 0.00 | 0.14 | 0.00 | 97 | 1017.2 | |
| 20260905100017 | 50 | 0.0 | 0.0 | 0.00 | 0.14 | 0.00 | 97 | 1017.2 | |
| 20260905095017 | 50 | 0.0 | 0.0 | 0.00 | 0.14 | 0.00 | 97 | 1017.2 | |
| 20260905094016 | 50 | 0.0 | 0.0 | 0.00 | 0.14 | 0.00 | 97 | 1017.2 | |
| 20260905093021 | 51 | 0.0 | 0.0 | 0.00 | 0.14 | 0.00 | 97 | 1017.2 | |
| 20260905092017 | 51 | 0.0 | 0.0 | 0.00 | 0.14 | 0.00 | 97 | 1017.2 | |
| 20260905091017 | 51 | 0.0 | 0.0 | 0.00 | 0.14 | 0.00 | 97 | 1017.1 | |
| 20260905090057 | 51 | 0.0 | 0.0 | 0.00 | 0.14 | 0.00 | 97 | 1017.0 | |
| 20260905085037 | 51 | 0.0 | 0.0 | 0.00 | 0.14 | 0.00 | 97 | 1017.0 | |
| 20260905084017 | 51 | 0.0 | 0.0 | 0.00 | 0.14 | 0.00 | 97 | 1016.9 | |
| 20260905083017 | 51 | 0.0 | 0.0 | 0.00 | 0.14 | 0.00 | 97 | 1016.9 | |
| 20260905082017 | 51 | 0.0 | 0.0 | 0.00 | 0.14 | 0.00 | 97 | 1016.9 | |
| 20260905081017 | 51 | 0.0 | 0.0 | 0.00 | 0.14 | 0.00 | 97 | 1016.8 | |
| 20260905080017 | 51 | 0.0 | 0.0 | 0.00 | 0.14 | 0.00 | 97 | 1016.8 | |
| 20260905075018 | 52 | 0.0 | 0.0 | 0.00 | 0.14 | 0.00 | 97 | 1016.8 | |
| 20260905074016 | 52 | 0.0 | 0.0 | 0.00 | 0.14 | 0.00 | 97 | 1016.9 | |
| 20260905073058 | 52 | 0.0 | 0.0 | 0.00 | 0.14 | 0.00 | 97 | 1016.8 | |
| 20260905072036 | 52 | 0.0 | 0.0 | 0.00 | 0.14 | 0.00 | 97 | 1016.7 | |
| 20260905071018 | 52 | 0.0 | 0.0 | 0.00 | 0.14 | 0.00 | 97 | 1016.7 | |
| 20260905070016 | 52 | 0.0 | 0.0 | 0.00 | 0.14 | 0.14 | 97 | 1016.5 | |
| 20260905065041 | 52 | 0.0 | 0.0 | 0.00 | 0.14 | 0.14 | 97 | 1016.4 | |
| 20260905064025 | 52 | 0.0 | 0.0 | 0.00 | 0.14 | 0.14 | 97 | 1016.3 | |
| 20260905063017 | 53 | 0.0 | 0.0 | 0.00 | 0.14 | 0.14 | 97 | 1016.3 | |
| 20260905062017 | 53 | 0.0 | 0.9 | 0.00 | 0.14 | 0.14 | 97 | 1016.2 | |
| 20260905061017 | 53 | 0.0 | 0.0 | 0.00 | 0.14 | 0.14 | 97 | 1016.2 | |
| 20260905060016 | 53 | 0.0 | 0.0 | 0.00 | 0.14 | 0.14 | 97 | 1016.1 | |
| 20260905055037 | 53 | 0.0 | 0.0 | 0.00 | 0.14 | 0.14 | 97 | 1016.1 | |
| 20260905054058 | 53 | 0.0 | 0.0 | 0.00 | 0.14 | 0.14 | 97 | 1015.9 | |
| 20260905053017 | 53 | 0.0 | 0.9 | 0.00 | 0.14 | 0.14 | 96 | 1016.0 | |
| 20260905052017 | 54 | 0.0 | 0.0 | 0.00 | 0.14 | 0.14 | 97 | 1016.0 | |
| 20260905051017 | 54 | 0.0 | 0.0 | 0.00 | 0.14 | 0.14 | 97 | 1016.0 | |
| 20260905050017 | 54 | 0.0 | 0.0 | 0.00 | 0.14 | 0.14 | 97 | 1016.0 | |
| 20260905045016 | 54 | 0.0 | 0.0 | 0.00 | 0.15 | 0.14 | 97 | 1016.1 | |
| 20260905044017 | 54 | 0.0 | 0.0 | 0.00 | 0.16 | 0.14 | 97 | 1016.1 | |
| 20260905043037 | 54 | 0.0 | 0.0 | 0.00 | 0.16 | 0.14 | 97 | 1016.1 | |
| 20260905042016 | 54 | 0.0 | 0.0 | 0.00 | 0.16 | 0.14 | 96 | 1016.2 | |
| 20260905041102 | 54 | 0.0 | 0.0 | 0.00 | 0.16 | 0.14 | 96 | 1016.2 | |
| 20260905040016 | 54 | 0.0 | 0.0 | 0.00 | 0.16 | 0.14 | 96 | 1016.3 | |
| 20260905035016 | 55 | 0.0 | 0.0 | 0.00 | 0.16 | 0.14 | 96 | 1016.2 | |
| 20260905034016 | 54 | 0.0 | 0.0 | 0.00 | 0.16 | 0.14 | 96 | 1016.0 | |
| 20260905033016 | 54 | 0.0 | 0.0 | 0.00 | 0.16 | 0.14 | 96 | 1016.1 | |
| 20260905032016 | 55 | 0.0 | 0.0 | 0.00 | 0.16 | 0.14 | 96 | 1016.0 | |
| 20260905031036 | 55 | 0.0 | 0.0 | 0.00 | 0.16 | 0.14 | 96 | 1015.9 | |
| 20260905030017 | 55 | 0.0 | 0.0 | 0.00 | 0.16 | 0.14 | 96 | 1015.9 | |
| 20260905025016 | 55 | 0.0 | 0.0 | 0.00 | 0.16 | 0.14 | 96 | 1015.9 | |
| 20260905024036 | 55 | 0.0 | 0.0 | 0.00 | 0.16 | 0.14 | 96 | 1015.8 | |
| 20260905023016 | 55 | 0.0 | 0.0 | 0.01 | 0.16 | 0.14 | 96 | 1015.8 | |
| 20260905022137 | 56 | 0.0 | 0.0 | 0.02 | 0.16 | 0.14 | 96 | 1015.7 | |
| 20260905021036 | 56 | 0.0 | 0.0 | 0.03 | 0.16 | 0.14 | 96 | 1015.7 | |
| 20260905020017 | 56 | 0.0 | 0.9 | 0.03 | 0.16 | 0.14 | 96 | 1015.6 | |
| 20260905015036 | 56 | 0.0 | 0.9 | 0.04 | 0.16 | 0.14 | 95 | 1015.6 | |
| 20260905014016 | 56 | 0.0 | 0.0 | 0.04 | 0.16 | 0.14 | 95 | 1015.6 | |
| 20260905013036 | 56 | 0.0 | 0.0 | 0.04 | 0.15 | 0.13 | 95 | 1015.6 | |
| 20260905012017 | 56 | 0.0 | 0.0 | 0.06 | 0.14 | 0.12 | 95 | 1015.6 | |
| 20260905011016 | 56 | 0.0 | 0.0 | 0.06 | 0.13 | 0.11 | 95 | 1015.5 | |
| 20260905010016 | 56 | 0.0 | 0.0 | 0.08 | 0.13 | 0.11 | 94 | 1015.2 | |
| 20260905005016 | 56 | 0.0 | 0.0 | 0.09 | 0.12 | 0.10 | 94 | 1015.2 | |
| 20260905004041 | 57 | 158 | 0.9 | 1.7 | 0.10 | 0.12 | 0.10 | 93 | 1015.2 |
| 20260905003016 | 58 | 0.0 | 0.9 | 0.09 | 0.11 | 0.09 | 91 | 1015.1 |